STARLINK-33832, 63637

Orbit data source: Space-Track

STARLINK-33832, 63637 is a payload satellite owned by SpaceX/Seattle (US) in LEO that was launched on Fri, 25 Apr 2025 UTC via an FALCON 9 launch vehicle from the Air Force Eastern Test Range (AFETR). Payload-class satellites include a variety of spacecraft equipped with specific instruments for various scientific and technological missions. These include communications satellites like Starlink; space stations such as the ISS; scientific satellites like the Hubble; Earth observation satellites from companies like Planet Labs, Umbra, and HawkEye 360; GPS; miniature CubeSats for education and research; and military/defense satellites.

Loading next visibility...
Identifier
63637, 2025-083D
Orbit
LEO
Country
Flag of USUS
Related business
Manufacturer
SpaceX/Seattle
Mission
Operational Commercial Communications
Bus & Motor
STARLINK V2MO, Unknown motor
Mass
575 kg wet, ~530 kg dry
Launch date (UTC)
2025-04-25 (1 year ago)
Launch vehicle
FALCON 9
Launch site
Air Force Eastern Test Range (AFETR)
Object type
Payload
Rocket body
Debris
Shape & HBR
Box + 2 Pan, 17.7 m
Radar Cross Section
36.964 m², Large (>1 m²)

Expand to show TLE details & history
Last TLE update: 13 hours ago

TLE from 13 hours ago
0 STARLINK-33832
1 63637U 25083D   26171.30148312  .00012106  00000-0  44863-3 0  9990
2 63637  43.0016 145.4042 0000878 270.9619  89.1132 15.27586203 65765
Epoch: 2026-06-20T07:14Z
TLE epoch observation values (Epoch: 2026-06-20T07:14:08.141Z)
Latitude
-0.00003°
Longitude
128.35218°
Altitude
482.797 km
Speed
7.626 km/s
True Right ascension
09h 41m 37s
True Declination
0° 00' 00"
Sunlit
Object was in daylight at epoch
Visualization orbit readout
Latitude
Unknown
Longitude
Unknown
Altitude
Unknown
Speed
Unknown
Apparent Right ascension
Unknown
Apparent Declination
Unknown
Sunlit
N/A
Visualization observer readout
Local Sidereal Time
07:17:45
Azimuth
Unknown
Elevation
Unknown
Doppler factor
Unknown
Orbital elements
Apogee altitude
485.578 km
Perigee altitude
484.373 km
Semi-major axis
6,863.112 km
Eccentricity
0.00009
Inclination
43.0016°
RAAN
145.4042°
Arg. of periapsis
270.9619°
True anomaly
89.12326°
Mean anomaly
89.1132°
Eccentric anomaly
89.11823°
Mean motion
3.81735 °/min
Orbital period
94.31 mins
BSTAR
0.00044863
Loading maneuver chart data...
Computing Atmospheric mass density...
Loading historical data...
Loading historical data...
Loading historical data...
Loading historical data...
Loading historical data...
Loading historical data...
Loading historical data...

Documentation

Showing up to 5 results
|